Weather History for PAOH - November, 2012

Change the Weather History Date:

Friday, November 2, 2012

  Actual Average Record
Temperature  
Mean Temperature 36 °F -  
Max Temperature 38 °F 39 °F 48 °F (1998)
Min Temperature 34 °F 32 °F 19 °F (2006)
Degree Days  
Heating Degree Days 29    
Moisture  
Dew Point 33 °F    
Average Humidity 88    
Maximum Humidity 100    
Minimum Humidity 63    
Precipitation  
Precipitation 0.05 in - - ()
Sea Level Pressure  
Sea Level Pressure 29.59 in    
Wind  
Wind Speed 9 mph (East)    
Max Wind Speed 15 mph    
Max Gust Speed -    
Averages and records for this station are not official NWS values.
T = Trace of Precipitation, MM = Missing Value Source: NWS Daily Summary

Daily Weather History Graph

Daily Weather History Graph

Search for Another Location

Airport or City:

Trip Planner

Search our weather history database for the weather conditions in past years. The results will help you decide how hot, cold, wet, or windy it might be!

Date:

Astronomy

Nov. 02, 2012 Rise Set
Actual Time 8:20 AM AKDT 5:09 PM AKDT
Civil Twilight 7:37 AM AKDT 5:52 PM AKDT
Nautical Twilight 6:50 AM AKDT 6:39 PM AKDT
Astronomical Twilight 6:04 AM AKDT 7:24 PM AKDT
Moon 7:34 PM AKDT (11/2) 12:17 PM AKDT (11/2)
Length of Visible Light 10h 14m
Length of Day
8h 49m
Waning Gibbous, 86% of the Moon is Illuminated
Nov 2
Waning Gibbous
Nov 6
Last Quarter
Nov 13
New
Nov 20
First Quarter
Nov 28
Full

Hourly Weather History & Observations

Time (AKDT) Temp. Windchill Dew Point Humidity Pressure Visibility Wind Dir Wind Speed Gust Speed Precip Events Conditions
12:56 AM 38.8 °F 35.4 °F 27.1 °F 63% 29.72 in - NE 4.6 mph - N/A   Overcast
1:56 AM 37.9 °F 32.7 °F 28.0 °F 68% 29.70 in - East 6.9 mph - N/A   Overcast
2:56 AM 37.9 °F 31.5 °F 28.0 °F 68% 29.67 in - ENE 9.2 mph - N/A   Overcast
3:56 AM 37.9 °F 30.5 °F 27.1 °F 65% 29.65 in - East 11.5 mph - N/A   Mostly Cloudy
4:56 AM 37.9 °F 31.5 °F 27.1 °F 65% 29.61 in - East 9.2 mph - N/A   Overcast
5:56 AM 37.9 °F 31.5 °F 27.1 °F 65% 29.59 in - East 9.2 mph - N/A   Overcast
6:56 AM 38.8 °F 33.2 °F 27.1 °F 63% 29.56 in - East 8.1 mph - 0.00 in   Overcast
7:27 AM 37.4 °F 30.8 °F 30.2 °F 75% 29.55 in - ESE 9.2 mph - N/A   Overcast
7:56 AM 36.0 °F 29.0 °F 32.0 °F 86% 29.55 in - ESE 9.2 mph - 0.00 in   Overcast
8:20 AM 35.6 °F 26.2 °F 33.8 °F 93% 29.54 in - ESE 15.0 mph - 0.00 in   Overcast
8:56 AM 34.9 °F 27.1 °F 32.9 °F 92% 29.55 in - ESE 10.4 mph - 0.00 in Snow Light Snow
9:38 AM 35.6 °F 27.5 °F 33.8 °F 93% 29.54 in - ESE 11.5 mph - 0.03 in Snow Light Snow
9:56 AM 35.6 °F 28.0 °F 33.8 °F 93% 29.54 in - ESE 10.4 mph - N/A Snow Light Snow
10:56 AM 36.9 °F 29.6 °F 34.9 °F 93% 29.56 in - ESE 10.4 mph - 0.01 in   Overcast
11:18 AM 35.6 °F 28.6 °F 35.6 °F 100% 29.57 in - SE 9.2 mph - 0.00 in   Overcast
11:56 AM 36.0 °F 29.0 °F 34.9 °F 96% 29.58 in - SE 9.2 mph - 0.01 in   Overcast
12:39 PM 35.6 °F 29.2 °F 35.6 °F 100% 29.58 in - ESE 8.1 mph - 0.02 in   Overcast
12:56 PM 35.6 °F 29.9 °F 35.6 °F 100% 29.59 in - East 6.9 mph - N/A   Overcast
1:56 PM 36.0 °F 28.5 °F 34.9 °F 96% 29.60 in - East 10.4 mph - 0.02 in   Overcast
2:09 PM 35.6 °F 28.6 °F 35.6 °F 100% 29.60 in - East 9.2 mph - 0.01 in   Overcast
2:56 PM 36.9 °F 29.6 °F 36.0 °F 97% 29.60 in - East 10.4 mph - 0.01 in   Mostly Cloudy
3:56 PM 36.9 °F 29.1 °F 36.0 °F 97% 29.59 in - East 11.5 mph - N/A   Overcast
4:56 PM 36.9 °F 30.1 °F 36.0 °F 97% 29.59 in - East 9.2 mph - N/A   Overcast
5:56 PM 36.9 °F 29.1 °F 36.0 °F 97% 29.58 in - East 11.5 mph - N/A   Overcast
6:56 PM 37.9 °F 30.0 °F 36.0 °F 93% 29.57 in - East 12.7 mph - N/A   Overcast
7:56 PM 36.9 °F 29.6 °F 36.0 °F 97% 29.57 in - East 10.4 mph - N/A   Overcast
8:56 PM 36.9 °F 29.6 °F 36.0 °F 97% 29.57 in - East 10.4 mph - N/A   Overcast
9:56 PM 37.9 °F 30.5 °F 36.0 °F 93% 29.57 in - East 11.5 mph - N/A   Overcast
10:21 PM 37.4 °F 30.3 °F 35.6 °F 93% 29.56 in - East 10.4 mph - 0.00 in Rain Light Rain
10:56 PM 36.9 °F 30.1 °F 36.0 °F 97% 29.56 in - East 9.2 mph - 0.00 in   Overcast
11:56 PM 37.9 °F 32.1 °F 36.0 °F 93% 29.56 in - East 8.1 mph - N/A   Overcast